Weather History for LIMC - March, 2013

Change the Weather History Date:

Thursday, March 21, 2013

  Actual Average Record
Temperature  
Mean Temperature 44 °F -  
Max Temperature 60 °F 61 °F 69 °F (2002)
Min Temperature 28 °F 38 °F 21 °F (2009)
Degree Days  
Heating Degree Days 21    
Moisture  
Dew Point 23 °F    
Average Humidity 47    
Maximum Humidity 100    
Minimum Humidity 17    
Precipitation  
Precipitation 0.00 in 0.14 in - ()
Sea Level Pressure  
Sea Level Pressure 29.87 in    
Wind  
Wind Speed 4 mph ()    
Max Wind Speed 8 mph    
Max Gust Speed -    
Visibility 4.1 miles    
Events Fog    
Averages and records for this station are not official NWS values.
T = Trace of Precipitation, MM = Missing Value Source: Averaged Metar Reports

Daily Weather History Graph

Daily Weather History Graph

Search for Another Location

Airport or City:

Trip Planner

Search our weather history database for the weather conditions in past years. The results will help you decide how hot, cold, wet, or windy it might be!

Date:

Astronomy

Mar. 21, 2013 Rise Set
Actual Time 6:26 AM CET 6:38 PM CET
Civil Twilight 5:56 AM CET 7:08 PM CET
Nautical Twilight 5:21 AM CET 7:43 PM CET
Astronomical Twilight 4:46 AM CET 8:19 PM CET
Moon 12:38 PM CET (3/21) 2:52 AM CET (3/21)
Length of Visible Light 13h 11m
Length of Day
12h 12m
Waxing Gibbous, 66% of the Moon is Illuminated
Mar 21
Waxing Gibbous
Mar 27
Full
Apr 3
Last Quarter
Apr 10
New
Apr 18
First Quarter

Hourly Weather History & Observations

Time (CET) Temp. Windchill Dew Point Humidity Pressure Visibility Wind Dir Wind Speed Gust Speed Precip Events Conditions
12:20 AM 28.4 °F 24.6 °F 28.4 °F 100% 29.83 in 4.3 mi WNW 3.5 mph - N/A Fog Patches of Fog
12:50 AM 28.4 °F 23.3 °F 28.4 °F 100% 29.83 in 3.1 mi WNW 4.6 mph - N/A Fog Patches of Fog
2:50 AM 28.4 °F - 28.4 °F 100% 29.83 in 5.0 mi Variable 2.3 mph - N/A   Unknown
3:20 AM 28.4 °F - 28.4 °F 100% 29.83 in - Variable 2.3 mph - N/A   Clear
3:50 AM 35.6 °F 30.7 °F 28.4 °F 75% 29.83 in - NNW 5.8 mph - N/A   Clear
4:20 AM 33.8 °F 27.0 °F 26.6 °F 75% 29.83 in - NW 8.1 mph - N/A   Clear
4:50 AM 37.4 °F 32.8 °F 26.6 °F 65% 29.83 in - NNW 5.8 mph - N/A   Clear
5:20 AM 37.4 °F 32.8 °F 24.8 °F 60% 29.86 in - NW 5.8 mph - N/A   Clear
5:50 AM 35.6 °F 30.7 °F 24.8 °F 65% 29.86 in - NW 5.8 mph - N/A   Clear
6:20 AM 37.4 °F 33.8 °F 23.0 °F 56% 29.83 in - NNW 4.6 mph - N/A   Clear
6:50 AM 35.6 °F - 23.0 °F 60% 29.86 in - Variable 2.3 mph - N/A   Clear
7:20 AM 39.2 °F 37.0 °F 24.8 °F 56% 29.86 in - NNW 3.5 mph - N/A   Clear
7:50 AM 42.8 °F 41.1 °F 28.4 °F 57% 29.89 in - West 3.5 mph - N/A   Clear
8:20 AM 46.4 °F 43.5 °F 28.4 °F 50% 29.89 in - WSW 5.8 mph - N/A   Clear
8:50 AM 51.8 °F - 21.2 °F 30% 29.89 in - Variable 2.3 mph - N/A   Clear
9:20 AM 53.6 °F - 21.2 °F 28% 29.89 in - NW 4.6 mph - N/A   Clear
9:50 AM 55.4 °F - 19.4 °F 25% 29.89 in - NW 4.6 mph - N/A   Clear
10:20 AM 55.4 °F - 15.8 °F 21% 29.89 in - WNW 5.8 mph - N/A   Clear
10:50 AM 57.2 °F - 15.8 °F 20% 29.89 in - NW 4.6 mph - N/A   Clear
11:20 AM 59.0 °F - 15.8 °F 19% 29.89 in - West 6.9 mph - N/A   Clear
11:50 AM 59.0 °F - 15.8 °F 19% 29.89 in - West 6.9 mph - N/A   Clear
12:20 PM 59.0 °F - 14.0 °F 17% 29.89 in - Variable 4.6 mph - N/A   Clear
12:50 PM 60.8 °F - 15.8 °F 17% 29.89 in - Variable 4.6 mph - N/A   Clear
1:20 PM 60.8 °F - 21.2 °F 22% 29.86 in - WSW 4.6 mph - N/A   Clear
1:50 PM 60.8 °F - 21.2 °F 22% 29.86 in - SW 5.8 mph - N/A   Clear
2:20 PM 60.8 °F - 21.2 °F 22% 29.86 in - WSW 4.6 mph - N/A   Clear
2:50 PM 60.8 °F - 21.2 °F 22% 29.86 in - SW 6.9 mph - N/A   Clear
3:20 PM 60.8 °F - 21.2 °F 22% 29.83 in - SW 5.8 mph - N/A   Clear
3:50 PM 60.8 °F - 21.2 °F 22% 29.83 in - SW 5.8 mph - N/A   Clear
4:20 PM 60.8 °F - 21.2 °F 22% 29.83 in - SW 5.8 mph - N/A   Clear
4:50 PM 59.0 °F - 21.2 °F 23% 29.83 in - SW 4.6 mph - N/A   Clear
5:20 PM 59.0 °F - 23.0 °F 25% 29.83 in - SW 4.6 mph - N/A   Clear
5:50 PM 57.2 °F - 23.0 °F 27% 29.86 in - SW 4.6 mph - N/A   Clear
6:20 PM 55.4 °F - 24.8 °F 31% 29.86 in - SW 4.6 mph - N/A   Clear
6:50 PM 53.6 °F - 24.8 °F 33% 29.86 in - SSW 3.5 mph - N/A   Clear
7:20 PM 50.0 °F - 24.8 °F 37% 29.89 in - SSW 1.2 mph - N/A   Clear
7:50 PM 48.2 °F - 26.6 °F 43% 29.89 in - SSW 1.2 mph - N/A   Clear
8:20 PM 42.8 °F 41.1 °F 26.6 °F 53% 29.89 in - Variable 3.5 mph - N/A   Clear
8:50 PM 39.2 °F 37.0 °F 26.6 °F 61% 29.89 in - WNW 3.5 mph - N/A   Clear
9:20 PM 46.4 °F - 28.4 °F 50% 29.89 in - Variable 2.3 mph - N/A   Clear
9:50 PM 37.4 °F 34.9 °F 26.6 °F 65% 29.89 in - NW 3.5 mph - N/A   Clear
10:20 PM 35.6 °F 32.8 °F 26.6 °F 70% 29.92 in - Variable 3.5 mph - N/A   Clear
10:50 PM 35.6 °F - 26.6 °F 70% 29.89 in - Variable 2.3 mph - N/A   Clear
11:20 PM 33.8 °F 30.8 °F 26.6 °F 75% 29.89 in - WNW 3.5 mph - N/A   Clear
11:50 PM 32.0 °F 28.7 °F 24.8 °F 75% 29.89 in - WNW 3.5 mph - N/A   Clear